Tracking 19145 objects as of 26-Apr-2018
HD Live streaming from Space Station
objects crossing your sky now

COSMOS 1254

Track COSMOS 1254 now!
10-day predictions
COSMOS 1254 is classified as:


NORAD ID: 12324
Int'l Code: 1981-022E
Perigee: 1,438.6 km
Apogee: 1,479.0 km
Inclination: 74.0 °
Period: 114.9 minutes
Semi major axis: 7829 km
RCS: 0.6949 m2 (medium)
Launch date: March 6, 1981
Source: Commonwealth of Independent States (former USSR) (CIS)
Launch site: PLESETSK MISSILE AND SPACE COMPLEX (PKMTR)
aabbcc
Your satellite tracking list
Your tracking list is empty




NASA's NSSDC Master Catalog

Two Line Element Set (TLE):
1 12324U 81022E   18115.48821785 -.00000031  00000-0 -97105-4 0  9996
2 12324  74.0303 219.3155 0025799 130.2039 308.4490 12.53080854698970
Source of the keplerian elements: AFSPC